Year,Month,Day,Hour,Minute,Value (Times are PST for temperature in C)
2009,07,28,00,00,22.10
2009,07,28,00,01,22.10
2009,07,28,00,02,22.00
2009,07,28,00,03,22.00
2009,07,28,00,04,22.00
2009,07,28,00,05,22.00
2009,07,28,00,06,22.00
2009,07,28,00,07,21.90
2009,07,28,00,08,21.90
2009,07,28,00,09,21.90
2009,07,28,00,10,21.90
2009,07,28,00,11,21.90
2009,07,28,00,12,21.90
2009,07,28,00,13,21.80
2009,07,28,00,14,21.80
2009,07,28,00,15,21.80
2009,07,28,00,16,21.80
2009,07,28,00,17,21.80
2009,07,28,00,18,21.70
2009,07,28,00,19,21.70
2009,07,28,00,20,21.70
2009,07,28,00,21,21.70
2009,07,28,00,22,21.70
2009,07,28,00,23,21.70
2009,07,28,00,24,21.70
2009,07,28,00,25,21.70
2009,07,28,00,26,21.70
2009,07,28,00,27,21.70
2009,07,28,00,28,21.70
2009,07,28,00,29,21.70
2009,07,28,00,30,21.70
2009,07,28,00,31,21.70
2009,07,28,00,32,21.70
2009,07,28,00,33,21.70
2009,07,28,00,34,21.70
2009,07,28,00,35,21.70
2009,07,28,00,36,21.70
2009,07,28,00,37,21.70
2009,07,28,00,38,21.70
2009,07,28,00,39,21.70
2009,07,28,00,40,21.70
2009,07,28,00,41,21.60
2009,07,28,00,42,21.60
2009,07,28,00,43,21.60
2009,07,28,00,44,21.60
2009,07,28,00,45,21.60
2009,07,28,00,46,21.60
2009,07,28,00,47,21.60
2009,07,28,00,48,21.60
2009,07,28,00,49,21.60
2009,07,28,00,50,21.60
2009,07,28,00,51,21.60
2009,07,28,00,52,21.60
2009,07,28,00,53,21.60
2009,07,28,00,54,21.60
2009,07,28,00,55,21.60
2009,07,28,00,56,21.60
2009,07,28,00,57,21.60
2009,07,28,00,58,21.60
2009,07,28,00,59,21.60
2009,07,28,01,00,21.60
2009,07,28,01,01,21.50
2009,07,28,01,02,21.40
2009,07,28,01,03,21.40
2009,07,28,01,04,21.40
2009,07,28,01,05,21.40
2009,07,28,01,06,21.40
2009,07,28,01,07,21.40
2009,07,28,01,08,21.40
2009,07,28,01,09,21.30
2009,07,28,01,10,21.30
2009,07,28,01,11,21.30
2009,07,28,01,12,21.30
2009,07,28,01,13,21.30
2009,07,28,01,14,21.30
2009,07,28,01,15,21.30
2009,07,28,01,16,21.30
2009,07,28,01,17,21.30
2009,07,28,01,18,21.30
2009,07,28,01,19,21.30
2009,07,28,01,20,21.30
2009,07,28,01,21,21.30
2009,07,28,01,22,21.20
2009,07,28,01,23,21.20
2009,07,28,01,24,21.20
2009,07,28,01,25,21.20
2009,07,28,01,26,21.20
2009,07,28,01,27,21.20
2009,07,28,01,28,21.20
2009,07,28,01,29,21.10
2009,07,28,01,30,21.10
2009,07,28,01,31,21.10
2009,07,28,01,32,21.10
2009,07,28,01,33,21.10
2009,07,28,01,34,21.10
2009,07,28,01,35,21.10
2009,07,28,01,36,21.10
2009,07,28,01,37,21.10
2009,07,28,01,38,21.10
2009,07,28,01,39,21.00
2009,07,28,01,40,21.00
2009,07,28,01,41,21.00
2009,07,28,01,42,21.00
2009,07,28,01,43,21.00
2009,07,28,01,44,21.00
2009,07,28,01,45,21.00
2009,07,28,01,46,21.00
2009,07,28,01,47,21.00
2009,07,28,01,48,20.90
2009,07,28,01,49,20.90
2009,07,28,01,50,20.90
2009,07,28,01,51,20.90
2009,07,28,01,52,20.90
2009,07,28,01,53,20.90
2009,07,28,01,54,20.80
2009,07,28,01,55,20.80
2009,07,28,01,56,20.80
2009,07,28,01,57,20.80
2009,07,28,01,58,20.80
2009,07,28,01,59,20.80
2009,07,28,02,00,20.70
2009,07,28,02,01,20.70
2009,07,28,02,02,20.70
2009,07,28,02,03,20.70
2009,07,28,02,04,20.70
2009,07,28,02,05,20.70
2009,07,28,02,06,20.60
2009,07,28,02,07,20.60
2009,07,28,02,08,20.60
2009,07,28,02,09,20.60
2009,07,28,02,10,20.60
2009,07,28,02,11,20.60
2009,07,28,02,12,20.50
2009,07,28,02,13,20.50
2009,07,28,02,14,20.50
2009,07,28,02,15,20.60
2009,07,28,02,16,20.60
2009,07,28,02,17,20.60
2009,07,28,02,18,20.60
2009,07,28,02,19,20.60
2009,07,28,02,20,20.50
2009,07,28,02,21,20.50
2009,07,28,02,22,20.50
2009,07,28,02,23,20.50
2009,07,28,02,24,20.50
2009,07,28,02,25,20.40
2009,07,28,02,26,20.40
2009,07,28,02,27,20.40
2009,07,28,02,28,20.40
2009,07,28,02,29,20.40
2009,07,28,02,30,20.40
2009,07,28,02,31,20.40
2009,07,28,02,32,20.40
2009,07,28,02,33,20.30
2009,07,28,02,34,20.30
2009,07,28,02,35,20.30
2009,07,28,02,36,20.30
2009,07,28,02,37,20.30
2009,07,28,02,38,20.20
2009,07,28,02,39,20.20
2009,07,28,02,40,20.20
2009,07,28,02,41,20.20
2009,07,28,02,42,20.20
2009,07,28,02,43,20.20
2009,07,28,02,44,20.20
2009,07,28,02,45,20.20
2009,07,28,02,46,20.20
2009,07,28,02,47,20.20
2009,07,28,02,48,20.20
2009,07,28,02,49,20.20
2009,07,28,02,50,20.20
2009,07,28,02,51,20.20
2009,07,28,02,52,20.20
2009,07,28,02,53,20.20
2009,07,28,02,54,20.20
2009,07,28,02,55,20.20
2009,07,28,02,56,20.20
2009,07,28,02,57,20.20
2009,07,28,02,58,20.20
2009,07,28,02,59,20.20
2009,07,28,03,00,20.20
2009,07,28,03,01,20.20
2009,07,28,03,02,20.20
2009,07,28,03,03,20.20
2009,07,28,03,04,20.10
2009,07,28,03,05,20.10
2009,07,28,03,06,20.10
2009,07,28,03,07,20.00
2009,07,28,03,08,19.90
2009,07,28,03,09,19.90
2009,07,28,03,10,19.90
2009,07,28,03,11,19.90
2009,07,28,03,12,19.90
2009,07,28,03,13,19.90
2009,07,28,03,14,19.90
2009,07,28,03,15,19.90
2009,07,28,03,16,19.90
2009,07,28,03,17,19.90
2009,07,28,03,18,19.90
2009,07,28,03,19,19.90
2009,07,28,03,20,19.90
2009,07,28,03,21,19.90
2009,07,28,03,22,19.90
2009,07,28,03,23,19.90
2009,07,28,03,24,19.90
2009,07,28,03,25,19.90
2009,07,28,03,26,19.90
2009,07,28,03,27,19.90
2009,07,28,03,28,19.90
2009,07,28,03,29,19.90
2009,07,28,03,30,19.90
2009,07,28,03,31,20.00
2009,07,28,03,32,20.10
2009,07,28,03,33,20.10
2009,07,28,03,34,20.10
2009,07,28,03,35,20.10
2009,07,28,03,36,20.10
2009,07,28,03,37,20.20
2009,07,28,03,38,20.20
2009,07,28,03,39,20.20
2009,07,28,03,40,20.20
2009,07,28,03,41,20.20
2009,07,28,03,42,20.20
2009,07,28,03,43,20.20
2009,07,28,03,44,20.10
2009,07,28,03,45,20.10
2009,07,28,03,46,20.10
2009,07,28,03,47,20.10
2009,07,28,03,48,20.10
2009,07,28,03,49,19.90
2009,07,28,03,50,19.90
2009,07,28,03,51,19.90
2009,07,28,03,52,19.90
2009,07,28,03,53,19.90
2009,07,28,03,54,19.90
2009,07,28,03,55,19.90
2009,07,28,03,56,19.90
2009,07,28,03,57,19.90
2009,07,28,03,58,19.90
2009,07,28,03,59,19.90
2009,07,28,04,00,19.90
2009,07,28,04,01,19.90
2009,07,28,04,02,19.90
2009,07,28,04,03,19.90
2009,07,28,04,04,19.90
2009,07,28,04,05,19.90
2009,07,28,04,06,19.90
2009,07,28,04,07,19.90
2009,07,28,04,08,19.90
2009,07,28,04,09,19.90
2009,07,28,04,10,19.90
2009,07,28,04,11,19.80
2009,07,28,04,12,19.80
2009,07,28,04,13,19.80
2009,07,28,04,14,19.80
2009,07,28,04,15,19.70
2009,07,28,04,16,19.70
2009,07,28,04,17,19.70
2009,07,28,04,18,19.70
2009,07,28,04,19,19.70
2009,07,28,04,20,19.70
2009,07,28,04,21,19.60
2009,07,28,04,22,19.60
2009,07,28,04,23,19.60
2009,07,28,04,24,19.60
2009,07,28,04,25,19.60
2009,07,28,04,26,19.60
2009,07,28,04,27,19.60
2009,07,28,04,28,19.60
2009,07,28,04,29,19.60
2009,07,28,04,30,19.50
2009,07,28,04,31,19.50
2009,07,28,04,32,19.50
2009,07,28,04,33,19.50
2009,07,28,04,34,19.50
2009,07,28,04,35,19.50
2009,07,28,04,36,19.50
2009,07,28,04,37,19.50
2009,07,28,04,38,19.60
2009,07,28,04,39,19.60
2009,07,28,04,40,19.60
2009,07,28,04,41,19.60
2009,07,28,04,42,19.60
2009,07,28,04,43,19.60
2009,07,28,04,44,19.60
2009,07,28,04,45,19.60
2009,07,28,04,46,19.60
2009,07,28,04,47,19.60
2009,07,28,04,48,19.60
2009,07,28,04,49,19.60
2009,07,28,04,50,19.60
2009,07,28,04,51,19.60
2009,07,28,04,52,19.50
2009,07,28,04,53,19.50
2009,07,28,04,54,19.50
2009,07,28,04,55,19.50
2009,07,28,04,56,19.50
2009,07,28,04,57,19.40
2009,07,28,04,58,19.40
2009,07,28,04,59,19.40
2009,07,28,05,00,19.40
2009,07,28,05,01,19.40
2009,07,28,05,02,19.40
2009,07,28,05,03,19.30
2009,07,28,05,04,19.30
2009,07,28,05,05,19.40
2009,07,28,05,06,19.30
2009,07,28,05,07,19.30
2009,07,28,05,08,19.30
2009,07,28,05,09,19.30
2009,07,28,05,10,19.30
2009,07,28,05,11,19.30
2009,07,28,05,12,19.30
2009,07,28,05,13,19.30
2009,07,28,05,14,19.30
2009,07,28,05,15,19.30
2009,07,28,05,16,19.30
2009,07,28,05,17,19.30
2009,07,28,05,18,19.30
2009,07,28,05,19,19.20
2009,07,28,05,20,19.30
2009,07,28,05,21,19.30
2009,07,28,05,22,19.30
2009,07,28,05,23,19.30
2009,07,28,05,24,19.30
2009,07,28,05,25,19.30
2009,07,28,05,26,19.40
2009,07,28,05,27,19.40
2009,07,28,05,28,19.40
2009,07,28,05,29,19.40
2009,07,28,05,30,19.40
2009,07,28,05,31,19.40
2009,07,28,05,32,19.40
2009,07,28,05,33,19.40
2009,07,28,05,34,19.40
2009,07,28,05,35,19.40
2009,07,28,05,36,19.40
2009,07,28,05,37,19.40
2009,07,28,05,38,19.40
2009,07,28,05,39,19.40
2009,07,28,05,40,19.40
2009,07,28,05,41,19.40
2009,07,28,05,42,19.40
2009,07,28,05,43,19.40
2009,07,28,05,44,19.30
2009,07,28,05,45,19.30
2009,07,28,05,46,19.30
2009,07,28,05,47,19.30
2009,07,28,05,48,19.30
2009,07,28,05,49,19.30
2009,07,28,05,50,19.20
2009,07,28,05,51,19.20
2009,07,28,05,52,19.20
2009,07,28,05,53,19.20
2009,07,28,05,54,19.20
2009,07,28,05,55,19.20
2009,07,28,05,56,19.20
2009,07,28,05,57,19.10
2009,07,28,05,58,19.10
2009,07,28,05,59,19.10
2009,07,28,06,00,19.10
2009,07,28,06,01,19.10
2009,07,28,06,02,19.10
2009,07,28,06,03,19.10
2009,07,28,06,04,19.10
2009,07,28,06,05,19.10
2009,07,28,06,06,18.90
2009,07,28,06,07,18.90
2009,07,28,06,08,18.90
2009,07,28,06,09,18.90
2009,07,28,06,10,18.90
2009,07,28,06,11,18.90
2009,07,28,06,12,18.90
2009,07,28,06,13,18.90
2009,07,28,06,14,18.90
2009,07,28,06,15,18.90
2009,07,28,06,16,18.90
2009,07,28,06,17,18.90
2009,07,28,06,18,18.90
2009,07,28,06,19,18.90
2009,07,28,06,20,18.90
2009,07,28,06,21,18.90
2009,07,28,06,22,18.90
2009,07,28,06,23,18.90
2009,07,28,06,24,18.90
2009,07,28,06,25,18.90
2009,07,28,06,26,18.90
2009,07,28,06,27,18.90
2009,07,28,06,28,18.90
2009,07,28,06,29,18.80
2009,07,28,06,30,18.80
2009,07,28,06,31,18.80
2009,07,28,06,32,18.80
2009,07,28,06,33,18.80
2009,07,28,06,34,18.80
2009,07,28,06,35,18.80
2009,07,28,06,36,18.80
2009,07,28,06,37,18.80
2009,07,28,06,38,18.80
2009,07,28,06,39,18.80
2009,07,28,06,40,18.80
2009,07,28,06,41,18.80
2009,07,28,06,42,18.80
2009,07,28,06,43,18.90
2009,07,28,06,44,18.90
2009,07,28,06,45,18.90
2009,07,28,06,46,18.90
2009,07,28,06,47,18.90
2009,07,28,06,48,18.90
2009,07,28,06,49,18.90
2009,07,28,06,50,18.90
2009,07,28,06,51,18.90
2009,07,28,06,52,18.90
2009,07,28,06,53,18.90
2009,07,28,06,54,18.90
2009,07,28,06,55,18.90
2009,07,28,06,56,18.90
2009,07,28,06,57,18.90
2009,07,28,06,58,18.90
2009,07,28,06,59,18.90
2009,07,28,07,00,18.90
2009,07,28,07,01,18.90
2009,07,28,07,02,18.90
2009,07,28,07,03,18.90
2009,07,28,07,04,18.90
2009,07,28,07,05,18.90
2009,07,28,07,06,18.90
2009,07,28,07,07,18.90
2009,07,28,07,08,18.90
2009,07,28,07,09,18.90
2009,07,28,07,10,18.90
2009,07,28,07,11,18.90
2009,07,28,07,12,18.90
2009,07,28,07,13,18.90
2009,07,28,07,14,18.90
2009,07,28,07,15,18.90
2009,07,28,07,16,18.90
2009,07,28,07,17,19.00
2009,07,28,07,18,19.10
2009,07,28,07,19,19.10
2009,07,28,07,20,19.10
2009,07,28,07,21,19.10
2009,07,28,07,22,19.20
2009,07,28,07,23,19.20
2009,07,28,07,24,19.20
2009,07,28,07,25,19.30
2009,07,28,07,26,19.30
2009,07,28,07,27,19.30
2009,07,28,07,28,19.40
2009,07,28,07,29,19.40
2009,07,28,07,30,19.50
2009,07,28,07,31,19.50
2009,07,28,07,32,19.50
2009,07,28,07,33,19.60
2009,07,28,07,34,19.60
2009,07,28,07,35,19.70
2009,07,28,07,36,19.70
2009,07,28,07,37,19.70
2009,07,28,07,38,19.80
2009,07,28,07,39,19.80
2009,07,28,07,40,19.90
2009,07,28,07,41,19.90
2009,07,28,07,42,19.90
2009,07,28,07,43,20.00
2009,07,28,07,44,20.10
2009,07,28,07,45,20.10
2009,07,28,07,46,20.20
2009,07,28,07,47,20.20
2009,07,28,07,48,20.20
2009,07,28,07,49,20.30
2009,07,28,07,50,20.30
2009,07,28,07,51,20.40
2009,07,28,07,52,20.40
2009,07,28,07,53,20.50
2009,07,28,07,54,20.50
2009,07,28,07,55,20.50
2009,07,28,07,56,20.60
2009,07,28,07,57,20.60
2009,07,28,07,58,20.60
2009,07,28,07,59,20.70
2009,07,28,08,00,20.70
2009,07,28,08,01,20.80
2009,07,28,08,02,20.80
2009,07,28,08,03,20.80
2009,07,28,08,04,20.90
2009,07,28,08,05,20.90
2009,07,28,08,06,20.90
2009,07,28,08,07,21.00
2009,07,28,08,08,21.00
2009,07,28,08,09,21.00
2009,07,28,08,10,21.10
2009,07,28,08,11,21.10
2009,07,28,08,12,21.20
2009,07,28,08,13,21.20
2009,07,28,08,14,21.30
2009,07,28,08,15,21.30
2009,07,28,08,16,21.30
2009,07,28,08,17,21.30
2009,07,28,08,18,21.40
2009,07,28,08,19,21.40
2009,07,28,08,20,21.50
2009,07,28,08,21,21.60
2009,07,28,08,22,21.60
2009,07,28,08,23,21.80
2009,07,28,08,24,21.90
2009,07,28,08,25,22.00
2009,07,28,08,26,22.10
2009,07,28,08,27,22.10
2009,07,28,08,28,22.20
2009,07,28,08,29,22.30
2009,07,28,08,30,22.30
2009,07,28,08,31,22.40
2009,07,28,08,32,22.40
2009,07,28,08,33,22.40
2009,07,28,08,34,22.50
2009,07,28,08,35,22.50
2009,07,28,08,36,22.60
2009,07,28,08,37,22.60
2009,07,28,08,38,22.70
2009,07,28,08,39,22.80
2009,07,28,08,40,22.80
2009,07,28,08,41,22.90
2009,07,28,08,42,22.90
2009,07,28,08,43,23.10
2009,07,28,08,44,23.10
2009,07,28,08,45,23.20
2009,07,28,08,46,23.30
2009,07,28,08,47,23.30
2009,07,28,08,48,23.30
2009,07,28,08,49,23.40
2009,07,28,08,50,23.40
2009,07,28,08,51,23.50
2009,07,28,08,52,23.60
2009,07,28,08,53,23.70
2009,07,28,08,54,23.70
2009,07,28,08,55,23.70
2009,07,28,08,56,23.80
2009,07,28,08,57,23.80
2009,07,28,08,58,23.90
2009,07,28,08,59,24.00
2009,07,28,09,00,24.10
2009,07,28,09,01,24.20
2009,07,28,09,02,24.30
2009,07,28,09,03,24.30
2009,07,28,09,04,24.40
2009,07,28,09,05,24.50
2009,07,28,09,06,24.50
2009,07,28,09,07,24.50
2009,07,28,09,08,24.60
2009,07,28,09,09,24.60
2009,07,28,09,10,24.70
2009,07,28,09,11,24.70
2009,07,28,09,12,24.70
2009,07,28,09,13,24.80
2009,07,28,09,14,24.80
2009,07,28,09,15,24.80
2009,07,28,09,16,24.90
2009,07,28,09,17,24.90
2009,07,28,09,18,25.00
2009,07,28,09,19,25.00
2009,07,28,09,20,25.10
2009,07,28,09,21,25.20
2009,07,28,09,22,25.20
2009,07,28,09,23,25.30
2009,07,28,09,24,25.40
2009,07,28,09,25,25.60
2009,07,28,09,26,25.70
2009,07,28,09,27,25.80
2009,07,28,09,28,25.90
2009,07,28,09,29,26.00
2009,07,28,09,30,26.10
2009,07,28,09,31,26.20
2009,07,28,09,32,26.40
2009,07,28,09,33,26.50
2009,07,28,09,34,26.60
2009,07,28,09,35,26.70
2009,07,28,09,36,26.80
2009,07,28,09,37,26.90
2009,07,28,09,38,27.00
2009,07,28,09,39,27.10
2009,07,28,09,40,27.20
2009,07,28,09,41,27.30
2009,07,28,09,42,27.30
2009,07,28,09,43,27.30
2009,07,28,09,44,27.40
2009,07,28,09,45,27.40
2009,07,28,09,46,27.50
2009,07,28,09,47,27.60
2009,07,28,09,48,27.60
2009,07,28,09,49,27.70
2009,07,28,09,50,27.70
2009,07,28,09,51,27.70
2009,07,28,09,52,27.70
2009,07,28,09,53,27.70
2009,07,28,09,54,27.80
2009,07,28,09,55,27.80
2009,07,28,09,56,27.80
2009,07,28,09,57,27.80
2009,07,28,09,58,27.80
2009,07,28,09,59,27.80
2009,07,28,10,00,27.80
2009,07,28,10,01,27.90
2009,07,28,10,02,27.90
2009,07,28,10,03,27.90
2009,07,28,10,04,27.90
2009,07,28,10,05,27.90
2009,07,28,10,06,28.00
2009,07,28,10,07,28.00
2009,07,28,10,08,28.00
2009,07,28,10,09,28.00
2009,07,28,10,10,28.00
2009,07,28,10,11,28.00
2009,07,28,10,12,28.00
2009,07,28,10,13,28.00
2009,07,28,10,14,28.00
2009,07,28,10,15,28.00
2009,07,28,10,16,28.10
2009,07,28,10,17,28.10
2009,07,28,10,18,28.10
2009,07,28,10,19,28.10
2009,07,28,10,20,28.10
2009,07,28,10,21,28.20
2009,07,28,10,22,28.20
2009,07,28,10,23,28.20
2009,07,28,10,24,28.20
2009,07,28,10,25,28.20
2009,07,28,10,26,28.30
2009,07,28,10,27,28.30
2009,07,28,10,28,28.30
2009,07,28,10,29,28.30
2009,07,28,10,30,28.30
2009,07,28,10,31,28.40
2009,07,28,10,32,28.40
2009,07,28,10,33,28.40
2009,07,28,10,34,28.40
2009,07,28,10,35,28.40
2009,07,28,10,36,28.50
2009,07,28,10,37,28.60
2009,07,28,10,38,28.60
2009,07,28,10,39,28.60
2009,07,28,10,40,28.60
2009,07,28,10,41,28.70
2009,07,28,10,42,28.70
2009,07,28,10,43,28.70
2009,07,28,10,44,28.70
2009,07,28,10,45,28.80
2009,07,28,10,46,28.80
2009,07,28,10,47,28.80
2009,07,28,10,48,28.90
2009,07,28,10,49,28.90
2009,07,28,10,50,28.90
2009,07,28,10,51,28.90
2009,07,28,10,52,28.90
2009,07,28,10,53,28.90
2009,07,28,10,54,29.00
2009,07,28,10,55,29.10
2009,07,28,10,56,29.10
2009,07,28,10,57,29.10
2009,07,28,10,58,29.10
2009,07,28,10,59,29.10
2009,07,28,11,00,29.10
2009,07,28,11,01,29.10
2009,07,28,11,02,29.10
2009,07,28,11,03,29.20
2009,07,28,11,04,29.20
2009,07,28,11,05,29.20
2009,07,28,11,06,29.20
2009,07,28,11,07,29.30
2009,07,28,11,08,29.30
2009,07,28,11,09,29.30
2009,07,28,11,10,29.40
2009,07,28,11,11,29.40
2009,07,28,11,12,29.40
2009,07,28,11,13,29.40
2009,07,28,11,14,29.50
2009,07,28,11,15,29.50
2009,07,28,11,16,29.50
2009,07,28,11,17,29.60
2009,07,28,11,18,29.60
2009,07,28,11,19,29.60
2009,07,28,11,20,29.60
2009,07,28,11,21,29.70
2009,07,28,11,22,29.70
2009,07,28,11,23,29.80
2009,07,28,11,24,29.80
2009,07,28,11,25,29.90
2009,07,28,11,26,29.90
2009,07,28,11,27,29.90
2009,07,28,11,28,29.90
2009,07,28,11,29,29.90
2009,07,28,11,30,30.00
2009,07,28,11,31,30.10
2009,07,28,11,32,30.10
2009,07,28,11,33,30.20
2009,07,28,11,34,30.20
2009,07,28,11,35,30.20
2009,07,28,11,36,30.20
2009,07,28,11,37,30.30
2009,07,28,11,38,30.30
2009,07,28,11,39,30.30
2009,07,28,11,40,30.30
2009,07,28,11,41,30.30
2009,07,28,11,42,30.30
2009,07,28,11,43,30.30
2009,07,28,11,44,30.30
2009,07,28,11,45,30.40
2009,07,28,11,46,30.40
2009,07,28,11,47,30.40
2009,07,28,11,48,30.50
2009,07,28,11,49,30.60
2009,07,28,11,50,30.60
2009,07,28,11,51,30.60
2009,07,28,11,52,30.70
2009,07,28,11,53,30.70
2009,07,28,11,54,30.70
2009,07,28,11,55,30.80
2009,07,28,11,56,30.80
2009,07,28,11,57,30.80
2009,07,28,11,58,30.90
2009,07,28,11,59,30.90
2009,07,28,12,00,30.90
2009,07,28,12,01,30.90
2009,07,28,12,02,30.90
2009,07,28,12,03,30.90
2009,07,28,12,04,30.90
2009,07,28,12,05,31.00
2009,07,28,12,06,31.00
2009,07,28,12,07,31.00
2009,07,28,12,08,31.00
2009,07,28,12,09,31.00
2009,07,28,12,10,31.00
2009,07,28,12,11,31.10
2009,07,28,12,12,31.10
2009,07,28,12,13,31.10
2009,07,28,12,14,31.10
2009,07,28,12,15,31.20
2009,07,28,12,16,31.20
2009,07,28,12,17,31.20
2009,07,28,12,18,31.20
2009,07,28,12,19,31.20
2009,07,28,12,20,31.30
2009,07,28,12,21,31.30
2009,07,28,12,22,31.30
2009,07,28,12,23,31.30
2009,07,28,12,24,31.30
2009,07,28,12,25,31.30
2009,07,28,12,26,31.40
2009,07,28,12,27,31.40
2009,07,28,12,28,31.40
2009,07,28,12,29,31.40
2009,07,28,12,30,31.40
2009,07,28,12,31,31.40
2009,07,28,12,32,31.40
2009,07,28,12,33,31.40
2009,07,28,12,34,31.40
2009,07,28,12,35,31.40
2009,07,28,12,36,31.50
2009,07,28,12,37,31.60
2009,07,28,12,38,31.60
2009,07,28,12,39,31.60
2009,07,28,12,40,31.60
2009,07,28,12,41,31.70
2009,07,28,12,42,31.70
2009,07,28,12,43,31.70
2009,07,28,12,44,31.80
2009,07,28,12,45,31.80
2009,07,28,12,46,31.80
2009,07,28,12,47,31.90
2009,07,28,12,48,31.90
2009,07,28,12,49,32.00
2009,07,28,12,50,32.10
2009,07,28,12,51,32.10
2009,07,28,12,52,32.10
2009,07,28,12,53,32.20
2009,07,28,12,54,32.20
2009,07,28,12,55,32.30
2009,07,28,12,56,32.30
2009,07,28,12,57,32.30
2009,07,28,12,58,32.30
2009,07,28,12,59,32.30
2009,07,28,13,00,32.40
2009,07,28,13,01,32.40
2009,07,28,13,02,32.40
2009,07,28,13,03,32.40
2009,07,28,13,04,32.50
2009,07,28,13,05,32.50
2009,07,28,13,06,32.60
2009,07,28,13,07,32.70
2009,07,28,13,08,32.80
2009,07,28,13,09,32.80
2009,07,28,13,10,32.90
2009,07,28,13,11,32.90
2009,07,28,13,12,33.00
2009,07,28,13,13,33.10
2009,07,28,13,14,33.10
2009,07,28,13,15,33.10
2009,07,28,13,16,33.20
2009,07,28,13,17,33.20
2009,07,28,13,18,33.30
2009,07,28,13,19,33.40
2009,07,28,13,20,33.50
2009,07,28,13,21,33.60
2009,07,28,13,22,33.70
2009,07,28,13,23,33.80
2009,07,28,13,24,33.90
2009,07,28,13,25,34.00
2009,07,28,13,26,33.80
2009,07,28,13,27,33.90
2009,07,28,13,28,34.00
2009,07,28,13,29,34.00
2009,07,28,13,30,34.10
2009,07,28,13,31,34.10
2009,07,28,13,32,34.10
2009,07,28,13,33,34.20
2009,07,28,13,34,34.30
2009,07,28,13,35,34.40
2009,07,28,13,36,34.40
2009,07,28,13,37,34.60
2009,07,28,13,38,34.70
2009,07,28,13,39,34.70
2009,07,28,13,40,34.70
2009,07,28,13,41,34.70
2009,07,28,13,42,34.70
2009,07,28,13,43,34.70
2009,07,28,13,44,34.70
2009,07,28,13,45,34.80
2009,07,28,13,46,34.80
2009,07,28,13,47,34.80
2009,07,28,13,48,34.80
2009,07,28,13,49,34.90
2009,07,28,13,50,34.80
2009,07,28,13,51,34.90
2009,07,28,13,52,34.90
2009,07,28,13,53,34.90
2009,07,28,13,54,34.90
2009,07,28,13,55,34.90
2009,07,28,13,56,35.00
2009,07,28,13,57,35.10
2009,07,28,13,58,35.10
2009,07,28,13,59,35.10
2009,07,28,14,00,35.20
2009,07,28,14,01,35.30
2009,07,28,14,02,35.40
2009,07,28,14,03,35.50
2009,07,28,14,04,35.60
2009,07,28,14,05,35.60
2009,07,28,14,06,35.60
2009,07,28,14,07,35.70
2009,07,28,14,08,35.70
2009,07,28,14,09,35.70
2009,07,28,14,10,35.70
2009,07,28,14,11,35.70
2009,07,28,14,12,35.60
2009,07,28,14,13,35.60
2009,07,28,14,14,35.60
2009,07,28,14,15,35.60
2009,07,28,14,16,35.50
2009,07,28,14,17,35.50
2009,07,28,14,18,35.50
2009,07,28,14,19,35.50
2009,07,28,14,20,35.50
2009,07,28,14,21,35.40
2009,07,28,14,22,35.30
2009,07,28,14,23,35.30
2009,07,28,14,24,35.30
2009,07,28,14,25,35.20
2009,07,28,14,26,35.20
2009,07,28,14,27,35.10
2009,07,28,14,28,35.10
2009,07,28,14,29,35.10
2009,07,28,14,30,35.10
2009,07,28,14,31,35.10
2009,07,28,14,32,35.20
2009,07,28,14,33,35.10
2009,07,28,14,34,35.10
2009,07,28,14,35,35.10
2009,07,28,14,36,35.10
2009,07,28,14,37,35.10
2009,07,28,14,38,35.10
2009,07,28,14,39,35.20
2009,07,28,14,40,35.30
2009,07,28,14,41,35.30
2009,07,28,14,42,35.30
2009,07,28,14,43,35.30
2009,07,28,14,44,35.20
2009,07,28,14,45,35.20
2009,07,28,14,46,35.10
2009,07,28,14,47,35.10
2009,07,28,14,48,34.90
2009,07,28,14,49,34.90
2009,07,28,14,50,34.90
2009,07,28,14,51,34.90
2009,07,28,14,52,34.80
2009,07,28,14,53,34.80
2009,07,28,14,54,34.80
2009,07,28,14,55,34.80
2009,07,28,14,56,34.80
2009,07,28,14,57,34.80
2009,07,28,14,58,34.80
2009,07,28,14,59,34.90
2009,07,28,15,00,34.90
2009,07,28,15,01,34.90
2009,07,28,15,02,34.90
2009,07,28,15,03,35.00
2009,07,28,15,04,35.10
2009,07,28,15,05,35.20
2009,07,28,15,06,35.30
2009,07,28,15,07,35.30
2009,07,28,15,08,35.20
2009,07,28,15,09,35.10
2009,07,28,15,10,35.00
2009,07,28,15,11,34.90
2009,07,28,15,12,34.90
2009,07,28,15,13,34.80
2009,07,28,15,14,34.70
2009,07,28,15,15,34.70
2009,07,28,15,16,34.60
2009,07,28,15,17,34.60
2009,07,28,15,18,34.70
2009,07,28,15,19,34.70
2009,07,28,15,20,34.70
2009,07,28,15,21,34.70
2009,07,28,15,22,34.70
2009,07,28,15,23,34.70
2009,07,28,15,24,34.80
2009,07,28,15,25,34.80
2009,07,28,15,26,34.80
2009,07,28,15,27,34.90
2009,07,28,15,28,34.90
2009,07,28,15,29,35.00
2009,07,28,15,30,35.10
2009,07,28,15,31,35.10
2009,07,28,15,32,35.20
2009,07,28,15,33,35.20
2009,07,28,15,34,35.30
2009,07,28,15,35,35.30
2009,07,28,15,36,35.30
2009,07,28,15,37,35.30
2009,07,28,15,38,35.30
2009,07,28,15,39,35.30
2009,07,28,15,40,35.30
2009,07,28,15,41,35.30
2009,07,28,15,42,35.30
2009,07,28,15,43,35.30
2009,07,28,15,44,35.30
2009,07,28,15,45,35.30
2009,07,28,15,46,35.20
2009,07,28,15,47,35.20
2009,07,28,15,48,35.20
2009,07,28,15,49,35.20
2009,07,28,15,50,35.20
2009,07,28,15,51,35.10
2009,07,28,15,52,35.00
2009,07,28,15,53,34.90
2009,07,28,15,54,34.70
2009,07,28,15,55,34.60
2009,07,28,15,56,34.40
2009,07,28,15,57,34.30
2009,07,28,15,58,34.20
2009,07,28,15,59,34.20
2009,07,28,16,00,34.10
2009,07,28,16,01,34.00
2009,07,28,16,02,33.90
2009,07,28,16,03,33.80
2009,07,28,16,04,33.70
2009,07,28,16,05,33.60
2009,07,28,16,06,33.60
2009,07,28,16,07,33.60
2009,07,28,16,08,33.50
2009,07,28,16,09,33.50
2009,07,28,16,10,33.50
2009,07,28,16,11,33.40
2009,07,28,16,12,33.40
2009,07,28,16,13,33.40
2009,07,28,16,14,33.40
2009,07,28,16,15,33.40
2009,07,28,16,16,33.40
2009,07,28,16,17,33.20
2009,07,28,16,18,33.20
2009,07,28,16,19,33.20
2009,07,28,16,20,33.20
2009,07,28,16,21,33.20
2009,07,28,16,22,33.10
2009,07,28,16,23,33.10
2009,07,28,16,24,33.00
2009,07,28,16,25,33.00
2009,07,28,16,26,33.00
2009,07,28,16,27,33.00
2009,07,28,16,28,33.00
2009,07,28,16,29,33.00
2009,07,28,16,30,33.00
2009,07,28,16,31,33.00
2009,07,28,16,32,33.00
2009,07,28,16,33,33.00
2009,07,28,16,34,33.00
2009,07,28,16,35,33.00
2009,07,28,16,36,33.00
2009,07,28,16,37,33.00
2009,07,28,16,38,33.10
2009,07,28,16,39,33.10
2009,07,28,16,40,33.10
2009,07,28,16,41,33.10
2009,07,28,16,42,33.10
2009,07,28,16,43,33.10
2009,07,28,16,44,33.10
2009,07,28,16,45,33.10
2009,07,28,16,46,33.10
2009,07,28,16,47,33.10
2009,07,28,16,48,33.10
2009,07,28,16,49,33.10
2009,07,28,16,50,33.10
2009,07,28,16,51,33.10
2009,07,28,16,52,33.10
2009,07,28,16,53,33.10
2009,07,28,16,54,33.10
2009,07,28,16,55,33.10
2009,07,28,16,56,33.10
2009,07,28,16,57,33.10
2009,07,28,16,58,33.10
2009,07,28,16,59,33.10
2009,07,28,17,00,33.10
2009,07,28,17,01,33.10
2009,07,28,17,02,33.10
2009,07,28,17,03,33.10
2009,07,28,17,04,33.10
2009,07,28,17,05,33.10
2009,07,28,17,06,33.10
2009,07,28,17,07,33.10
2009,07,28,17,08,33.10
2009,07,28,17,09,33.20
2009,07,28,17,10,33.20
2009,07,28,17,11,33.20
2009,07,28,17,12,33.10
2009,07,28,17,13,33.10
2009,07,28,17,14,33.10
2009,07,28,17,15,33.10
2009,07,28,17,16,33.10
2009,07,28,17,17,33.10
2009,07,28,17,18,33.10
2009,07,28,17,19,33.10